DMSP 5D-2 F13 DEB, 40610

Orbit data source: Space-Track

DMSP 5D-2 F13 DEB, 40610 is space debris in SSO originally from a launch on Fri, 24 Mar 1995 UTC launched from the Air Force Western Test Range (AFWTR). Debris objects in space refer to the collection of defunct objects orbiting the Earth. Examples of debris include non-operational satellites, rocket bodies, and fragments generated from explosions, collisions, or faulty payload assembly.

Loading next visibility...
Identifier
40610, 1995-015FH
Orbit
SSO
Country
Flag of USUS
Related business
Manufacturer
Unknown
Mission
Spacecraft
Bus & Motor
Unknown
Mass
Unknown
Launch date (UTC)
1995-03-24 (30 years ago)
Launch vehicle
Unknown
Launch site
Air Force Western Test Range (AFWTR)
Object type
Payload
Rocket body
Debris
Shape & HBR
Unknown
Radar Cross Section
Small (<0.1 m²)

Expand to show TLE details & history
Last TLE update: 1 day ago

TLE from 1 day ago
0 DMSP 5D-2 F13 DEB
1 40610U 95015FH  25242.04932903  .00006425  00000-0  21301-2 0  9992
2 40610  98.7087 273.3311 0026890 183.2893 176.8121 14.37964965537613
Epoch: 2025-08-30T01:11Z
TLE epoch observation values (Epoch: 2025-08-30T01:11:02.028Z)
Latitude
0.00002°
Longitude
-82.91656°
Altitude
787.352 km
Speed
7.45 km/s
True Right ascension
18h 13m 19s
True Declination
0° 00' 00"
Sunlit
Object was in daylight at epoch
Visualization orbit readout
Latitude
Unknown
Longitude
Unknown
Altitude
Unknown
Speed
Unknown
Apparent Right ascension
Unknown
Apparent Declination
Unknown
Sunlit
N/A
Visualization observer readout
Local Sidereal Time
03:09:56
Azimuth
Unknown
Elevation
Unknown
Doppler factor
Unknown
Orbital elements
Apogee altitude
781.565 km
Perigee altitude
743.164 km
Semi-major axis
7,140.502 km
Eccentricity
0.00269
Inclination
98.7087°
RAAN
273.3311°
Arg. of periapsis
183.2893°
True anomaly
176.82918°
Mean anomaly
176.8121°
Eccentric anomaly
176.82064°
Mean motion
3.59708 °/min
Orbital period
100.08 mins
BSTAR
0.0021301
Loading maneuver chart data...
Computing Atmospheric mass density...

Documentation

Showing up to 5 results
|